Location: Forli
(44.2227°N, 12.0407°E)
Time: 19:15:25
(UTC+01:00)

ISS - Pass Details

Date: 23 February 2026
Orbit: 416 x 427 km, 51.6° (Epoch: 6 March)

Event Time Altitude Azimuth Distance (km) Brightness Sun altitude
Exits shadow 05:49:06 14° 319° (NW) 1,255 -1.7 -13.3°
Maximum altitude 05:51:01 22° 3° (N) 958 -1.9 -12.9°
Drops below altitude 10° 05:53:44 10° 57° (ENE) 1,494 -0.1 -12.5°
Sets 05:56:08 0° 73° (ENE) 2,356 1.6 -12.0°
